Istrana, Italy

10:45 AM CET on November 20, 2017 (GMT +0100)
Istrana Mil

Weather History for LIPS - April, 2014

Change the Weather History Date:

Wednesday, April 2, 2014

  Actual Average Record
Temperature  
Mean Temperature 58 °F -  
Max Temperature 67 °F 64 °F 75 °F (2011)
Min Temperature 50 °F 45 °F 37 °F (2002)
Degree Days  
Heating Degree Days 6    
Growing Degree Days 8 (Base 50)    
Moisture  
Dew Point 50 °F    
Average Humidity 76    
Maximum Humidity 95    
Minimum Humidity 29    
Precipitation  
Precipitation 0.00 in 0.11 in - ()
Sea Level Pressure  
Sea Level Pressure 29.92 in    
Wind  
Wind Speed 4 mph ()    
Max Wind Speed 8 mph    
Max Gust Speed -    
Visibility 2.5 miles    
Events Fog    
Averages and records for this station are not official NWS values.
T = Trace of Precipitation, MM = Missing Value Source: Averaged Metar Reports

Daily Weather History Graph

Daily Weather History Graph

Search for Another Location

Airport or City:

Trip Planner

Search our weather history database for the weather conditions in past years. The results will help you decide how hot, cold, wet, or windy it might be!

Date:

Astronomy

Apr. 02, 2014 Rise Set
Actual Time 6:50 AM CEST 7:40 PM CEST
Civil Twilight 6:20 AM CEST 8:11 PM CEST
Nautical Twilight 5:44 AM CEST 8:47 PM CEST
Astronomical Twilight 5:06 AM CEST 9:24 PM CEST
Moon 8:14 AM CEST (4/2) 10:56 PM CEST (4/2)
Length of Visible Light 13h 50m
Length of Day
12h 50m
Waxing Crescent, 8% of the Moon is Illuminated
Apr 2
Waxing Crescent
Apr 7
First Quarter
Apr 15
Full
Apr 22
Last Quarter
Apr 29
New

Hourly Weather History & Observations

Time (CEST) Temp. Dew Point Humidity Pressure Visibility Wind Dir Wind Speed Gust Speed Precip Events Conditions
12:00 AM 52 °F 51 °F 94% 29.92 in 4 mi NNE 4.6 mph - -   Mist
12:55 AM 51.8 °F 50.0 °F 94% 29.92 in - North - - N/A   Unknown
1:00 AM 52 °F 50 °F 92% 29.92 in 4 mi NE 4.6 mph - -   Mist
1:55 AM 50.0 °F 48.2 °F 94% 29.92 in - North - - N/A   Unknown
2:00 AM 50 °F 49 °F 95% 29.93 in 2 mi ENE 5.8 mph - -   Mist
2:55 AM 50.0 °F 48.2 °F 94% 29.92 in - North - - N/A   Mist
3:00 AM 50 °F 49 °F 95% 29.93 in 2 mi ENE 5.8 mph - -   Mist
3:55 AM 51.8 °F 50.0 °F 94% 29.92 in - North - - N/A Fog Fog
4:55 AM 51.8 °F 50.0 °F 94% 29.92 in - North - - N/A Fog Fog
5:00 AM 52 °F 49 °F 87% 29.92 in 0 mi NE 4.6 mph - - Fog Heavy Fog
5:55 AM 51.8 °F 48.2 °F 88% 29.92 in - North - - N/A Fog Fog
6:00 AM 52 °F 49 °F 85% 29.93 in 0 mi NE 5.8 mph - - Fog Partial Fog
6:55 AM 51.8 °F 48.2 °F 88% 29.92 in - North - - N/A Fog Fog
7:00 AM 52 °F 49 °F 85% 29.93 in 0 mi ENE 6.9 mph - - Fog Heavy Fog
7:55 AM 51.8 °F 50.0 °F 94% 29.92 in - North - - N/A Fog Fog
8:00 AM 52 °F 49 °F 87% 29.93 in 0 mi NE 8.1 mph - - Fog Partial Fog
8:55 AM 53.6 °F 50.0 °F 88% 29.92 in - North - - N/A Fog Fog
9:00 AM 53 °F 50 °F 87% 29.94 in 0 mi East 2.3 mph - - Fog Partial Fog
9:24 AM 53.6 °F 50.0 °F 88% 29.92 in - North - - N/A   Mostly Cloudy
9:55 AM 55.4 °F 51.8 °F 88% 29.95 in - North - - N/A   Scattered Clouds
10:00 AM 55 °F 51 °F 84% 29.95 in 1 mi NE 3.5 mph - - Fog Light Fog
10:55 AM 59.0 °F 53.6 °F 82% 29.95 in - North - - N/A   Partly Cloudy
11:00 AM 59 °F 53 °F 74% 29.95 in 2 mi Calm Calm - -   Mist
11:24 AM 59.0 °F 53.6 °F 82% 29.95 in - North - - N/A   Partly Cloudy
11:55 AM 62.6 °F 53.6 °F 72% 29.95 in - North - - N/A   Partly Cloudy
12:00 PM 63 °F 53 °F 60% 29.95 in 2 mi Calm Calm - -   Mist
12:55 PM 66.2 °F 53.6 °F 64% 29.95 in - North - - N/A   Scattered Clouds
1:00 PM 65 °F 53 °F 56% 29.95 in 3 mi SW 4.6 mph - -   Mist
2:55 PM 66.2 °F 50.0 °F 56% 29.92 in - North - - N/A   Partly Cloudy
3:00 PM 66 °F 50 °F 45% 29.93 in 4 mi SW 5.8 mph - -   Mist
3:55 PM 68.0 °F 42.8 °F 40% 29.89 in - North - - N/A   Partly Cloudy
4:00 PM 67 °F 42 °F 29% 29.91 in 4 mi SSW 5.8 mph - -   Mist
4:55 PM 66.2 °F 44.6 °F 46% 29.89 in - North - - N/A   Unknown
5:00 PM 66 °F 45 °F 36% 29.89 in 4 mi SSE 2.3 mph - -   Mist
5:55 PM 66.2 °F 46.4 °F 49% 29.89 in - North - - N/A   Scattered Clouds
6:00 PM 66 °F 46 °F 37% 29.89 in 4 mi SSW 3.5 mph - -   Mist
6:55 PM 62.6 °F 51.8 °F 68% 29.86 in - North - - N/A   Scattered Clouds
7:00 PM 63 °F 51 °F 57% 29.88 in 4 mi South 6.9 mph - -   Mist
7:55 PM 60.8 °F 53.6 °F 77% 29.89 in - North - - N/A   Scattered Clouds
8:00 PM 61 °F 53 °F 67% 29.89 in 4 mi SSE 3.5 mph - -   Mist
8:55 PM 59.0 °F 51.8 °F 77% 29.89 in - North - - N/A   Unknown
9:00 PM 59 °F 52 °F 71% 29.89 in 4 mi Calm Calm - -   Mist
9:55 PM 57.2 °F 53.6 °F 88% 29.89 in - North - - N/A   Partly Cloudy
10:00 PM 57 °F 53 °F 82% 29.91 in 4 mi SSE 5.8 mph - -   Mist
10:55 PM 55.4 °F 53.6 °F 94% 29.92 in - North - - N/A   Unknown
11:00 PM 56 °F 53 °F 86% 29.92 in 4 mi SSW 5.8 mph - -   Mist
11:55 PM 55.4 °F 51.8 °F 88% 29.92 in - North - - N/A   Unknown